�������l�o���
Date,Time,MP-1(��Sv/h),MP-2(��Sv/h),MP-3(��Sv/h),MP-4(��Sv/h),MP-5(��Sv/h),MP-6(��Sv/h),MP-7(��Sv/h),MP-8(��Sv/h),����,����(m/s),���J
2018/06/02,00:00,0.843,1.246,0.858,1.573,1.096,0.472,0.834,0.793,��쐼,2.3,��
2018/06/02,00:10,0.842,1.247,0.860,1.573,1.097,0.473,0.832,0.791,��쐼,2.3,��
2018/06/02,00:20,0.843,1.246,0.859,1.573,1.094,0.472,0.832,0.794,��쐼,2.6,��
2018/06/02,00:30,0.843,1.247,0.860,1.573,1.094,0.472,0.833,0.794,��쐼,2.2,��
2018/06/02,00:40,0.844,1.248,0.859,1.571,1.095,0.472,0.831,0.792,��쐼,1.9,��
2018/06/02,00:50,0.842,1.243,0.861,1.572,1.096,0.472,0.833,0.792,�쐼,2.0,��
2018/06/02,01:00,0.842,1.245,0.858,1.571,1.094,0.472,0.834,0.792,�쐼,1.7,��
2018/06/02,01:10,0.843,1.244,0.859,1.570,1.095,0.473,0.832,0.795,��쐼,1.2,��
2018/06/02,01:20,0.844,1.245,0.859,1.573,1.095,0.473,0.832,0.794,��,1.9,��
2018/06/02,01:30,0.843,1.244,0.860,1.572,1.096,0.472,0.833,0.792,��,1.5,��
2018/06/02,01:40,0.842,1.245,0.858,1.571,1.096,0.472,0.832,0.793,��쐼,1.2,��
2018/06/02,01:50,0.843,1.245,0.860,1.573,1.096,0.472,0.831,0.792,��쐼,1.7,��
2018/06/02,02:00,0.843,1.247,0.859,1.573,1.094,0.471,0.831,0.793,�쐼,1.2,��
2018/06/02,02:10,0.843,1.244,0.859,1.571,1.094,0.472,0.831,0.792,��,1.2,��
2018/06/02,02:20,0.842,1.244,0.859,1.571,1.095,0.471,0.831,0.793,��쓌,1.4,��
2018/06/02,02:30,0.843,1.245,0.860,1.571,1.095,0.472,0.830,0.794,��,1.2,��
2018/06/02,02:40,0.842,1.243,0.860,1.571,1.096,0.471,0.832,0.793,�쐼,0.9,��
2018/06/02,02:50,0.843,1.245,0.858,1.571,1.094,0.471,0.832,0.791,���쐼,0.8,��
2018/06/02,03:00,0.840,1.244,0.858,1.570,1.093,0.470,0.830,0.791,���쐼,0.6,��
2018/06/02,03:10,0.843,1.244,0.859,1.572,1.095,0.471,0.832,0.792,��쐼,0.9,��
2018/06/02,03:20,0.840,1.246,0.859,1.573,1.096,0.471,0.831,0.793,�쐼,0.8,��
2018/06/02,03:30,0.842,1.244,0.860,1.570,1.093,0.473,0.831,0.793,��쐼,0.6,��
2018/06/02,03:40,0.840,1.244,0.858,1.571,1.094,0.472,0.830,0.791,-,CALM,��
2018/06/02,03:50,0.842,1.244,0.861,1.572,1.094,0.472,0.831,0.792,�k�k��,0.8,��
2018/06/02,04:00,0.842,1.244,0.858,1.570,1.093,0.472,0.831,0.792,���쓌,0.8,��
2018/06/02,04:10,0.841,1.245,0.860,1.571,1.096,0.471,0.831,0.792,�쓌,0.6,��
2018/06/02,04:20,0.841,1.242,0.856,1.570,1.093,0.471,0.832,0.793,-,CALM,��
2018/06/02,04:30,0.840,1.243,0.861,1.571,1.094,0.471,0.831,0.792,-,CALM,��
2018/06/02,04:40,0.842,1.243,0.857,1.572,1.095,0.472,0.832,0.794,-,CALM,��
2018/06/02,04:50,0.841,1.241,0.857,1.574,1.094,0.471,0.832,0.792,�k�k��,0.6,��
2018/06/02,05:00,0.842,1.241,0.859,1.569,1.095,0.471,0.830,0.793,�k��,0.9,��
2018/06/02,05:10,0.839,1.243,0.857,1.571,1.094,0.471,0.830,0.793,�k��,1.2,��
2018/06/02,05:20,0.843,1.242,0.859,1.572,1.093,0.471,0.832,0.794,�k��,1.1,��
2018/06/02,05:30,0.842,1.245,0.859,1.568,1.094,0.472,0.832,0.793,���k��,0.8,��
2018/06/02,05:40,0.843,1.241,0.858,1.572,1.095,0.471,0.831,0.793,-,CALM,��
2018/06/02,05:50,0.842,1.245,0.857,1.571,1.095,0.472,0.833,0.793,��,0.9,��
2018/06/02,06:00,0.842,1.246,0.860,1.571,1.094,0.472,0.833,0.793,���쓌,1.4,��
2018/06/02,06:10,0.842,1.246,0.859,1.575,1.095,0.471,0.833,0.792,���k��,0.6,��
2018/06/02,06:20,0.846,1.249,0.858,1.572,1.098,0.472,0.833,0.792,-,CALM,��
2018/06/02,06:30,0.846,1.241,0.858,1.570,1.093,0.472,0.834,0.793,-,CALM,��
2018/06/02,06:40,0.843,1.242,0.860,1.573,1.094,0.473,0.831,0.794,��,0.9,��
2018/06/02,06:50,0.843,1.244,0.859,1.574,1.094,0.473,0.834,0.793,�쓌,0.6,��
2018/06/02,07:00,0.843,1.245,0.858,1.571,1.097,0.472,0.834,0.793,�k�k��,0.6,��
2018/06/02,07:10,0.843,1.243,0.859,1.570,1.095,0.470,0.833,0.794,-,CALM,��
2018/06/02,07:20,0.843,1.243,0.861,1.573,1.097,0.469,0.834,0.795,�쓌,0.6,��
2018/06/02,07:30,0.845,1.246,0.860,1.575,1.096,0.471,0.832,0.794,���쓌,1.4,��
2018/06/02,07:40,0.844,1.248,0.860,1.575,1.095,0.470,0.830,0.795,��,1.2,��
2018/06/02,07:50,0.843,1.247,0.861,1.575,1.097,0.470,0.833,0.792,��,0.9,��
2018/06/02,08:00,0.844,1.246,0.859,1.576,1.096,0.471,0.830,0.792,��,0.9,��
2018/06/02,08:10,0.846,1.244,0.862,1.577,1.100,0.472,0.832,0.794,��,1.2,��
2018/06/02,08:20,0.845,1.248,0.863,1.577,1.099,0.471,0.830,0.793,��,1.7,��
2018/06/02,08:30,0.846,1.247,0.859,1.579,1.099,0.472,0.831,0.792,��,1.5,��
2018/06/02,08:40,0.845,1.250,0.862,1.577,1.098,0.472,0.833,0.791,��,2.2,��
2018/06/02,08:50,0.847,1.247,0.862,1.580,1.098,0.472,0.832,0.791,���쓌,2.3,��
2018/06/02,09:00,0.845,1.251,0.862,1.577,1.097,0.471,0.832,0.791,���쓌,2.6,��
2018/06/02,09:10,0.844,1.250,0.860,1.577,1.097,0.472,0.832,0.792,�쓌,2.2,��
2018/06/02,09:20,0.845,1.249,0.861,1.579,1.101,0.472,0.832,0.795,�쓌,2.5,��
2018/06/02,09:30,0.848,1.252,0.859,1.577,1.099,0.473,0.831,0.794,�쓌,2.6,��
2018/06/02,09:40,0.846,1.253,0.861,1.578,1.098,0.473,0.832,0.794,�쓌,3.1,��
2018/06/02,09:50,0.850,1.252,0.863,1.580,1.103,0.474,0.832,0.794,�쓌,3.4,��
2018/06/02,10:00,0.847,1.254,0.860,1.580,1.102,0.472,0.832,0.794,�쓌,2.8,��
2018/06/02,10:10,0.849,1.253,0.862,1.579,1.101,0.474,0.832,0.793,�쓌,4.4,��
2018/06/02,10:20,0.851,1.255,0.863,1.581,1.101,0.475,0.832,0.795,�쓌,4.0,��
2018/06/02,10:30,0.849,1.253,0.863,1.581,1.101,0.473,0.832,0.794,��쓌,4.7,��
2018/06/02,10:40,0.849,1.255,0.863,1.581,1.103,0.473,0.834,0.794,��쓌,5.0,��
2018/06/02,10:50,0.851,1.255,0.864,1.582,1.104,0.475,0.833,0.794,�쓌,5.5,��
2018/06/02,11:00,0.848,1.257,0.866,1.580,1.103,0.474,0.835,0.795,��쓌,5.5,��
2018/06/02,11:10,0.852,1.258,0.865,1.579,1.104,0.474,0.835,0.794,��쓌,5.5,��
2018/06/02,11:20,0.851,1.254,0.865,1.579,1.104,0.474,0.834,0.794,��쓌,5.1,��
2018/06/02,11:30,0.851,1.258,0.865,1.578,1.105,0.474,0.835,0.796,��쓌,7.7,��
2018/06/02,11:40,0.851,1.257,0.865,1.580,1.109,0.476,0.834,0.795,��쓌,6.6,��
2018/06/02,11:50,0.853,1.261,0.864,1.579,1.107,0.475,0.834,0.793,��쓌,7.0,��
2018/06/02,12:00,0.851,1.260,0.864,1.577,1.105,0.475,0.834,0.795,��쓌,8.6,��
2018/06/02,12:10,0.852,1.260,0.866,1.580,1.108,0.474,0.835,0.794,��쓌,8.2,��
2018/06/02,12:20,0.853,1.261,0.864,1.580,1.106,0.475,0.835,0.794,��쓌,7.9,��
2018/06/02,12:30,0.854,1.260,0.863,1.579,1.107,0.475,0.834,0.794,��쓌,8.9,��
2018/06/02,12:40,0.853,1.262,0.867,1.580,1.108,0.477,0.834,0.797,��쓌,7.7,��
2018/06/02,12:50,0.855,1.264,0.867,1.583,1.109,0.477,0.835,0.793,��쓌,8.4,��
2018/06/02,13:00,0.852,1.264,0.865,1.578,1.107,0.478,0.835,0.793,��쓌,8.9,��
2018/06/02,13:10,0.854,1.262,0.867,1.583,1.110,0.476,0.835,0.793,��쓌,8.8,��
2018/06/02,13:20,0.854,1.263,0.866,1.582,1.108,0.477,0.835,0.795,��쓌,10.2,��
2018/06/02,13:30,0.855,1.267,0.867,1.581,1.111,0.477,0.835,0.794,��쓌,9.1,��
2018/06/02,13:40,0.852,1.267,0.868,1.580,1.112,0.477,0.835,0.795,��쓌,10.2,��
2018/06/02,13:50,0.854,1.265,0.866,1.582,1.110,0.477,0.835,0.794,��쓌,10.4,��
2018/06/02,14:00,0.854,1.268,0.866,1.580,1.110,0.476,0.834,0.794,��쓌,8.7,��
2018/06/02,14:10,0.858,1.265,0.867,1.582,1.110,0.476,0.833,0.793,��쓌,9.4,��
2018/06/02,14:20,0.854,1.266,0.867,1.583,1.111,0.477,0.835,0.794,��쓌,9.3,��
2018/06/02,14:30,0.855,1.267,0.868,1.584,1.114,0.477,0.835,0.794,��쓌,10.5,��
2018/06/02,14:40,0.854,1.267,0.867,1.583,1.114,0.477,0.834,0.794,��쓌,10.5,��
2018/06/02,14:50,0.856,1.269,0.866,1.585,1.112,0.478,0.835,0.794,��쓌,10.2,��
2018/06/02,15:00,0.858,1.268,0.868,1.583,1.112,0.477,0.834,0.794,��쓌,8.6,��
2018/06/02,15:10,0.854,1.267,0.869,1.586,1.113,0.478,0.834,0.795,��쓌,8.2,��
2018/06/02,15:20,0.857,1.267,0.870,1.584,1.115,0.479,0.833,0.795,��쓌,8.5,��
2018/06/02,15:30,0.855,1.268,0.868,1.587,1.116,0.478,0.835,0.794,��쓌,9.1,��
2018/06/02,15:40,0.855,1.271,0.868,1.586,1.113,0.479,0.835,0.795,��쓌,9.3,��
2018/06/02,15:50,0.854,1.270,0.867,1.587,1.114,0.478,0.835,0.795,��쓌,11.3,��
2018/06/02,16:00,0.856,1.270,0.869,1.585,1.113,0.478,0.836,0.797,��,9.5,��
2018/06/02,16:10,0.857,1.271,0.871,1.586,1.113,0.478,0.834,0.795,��,10.2,��
2018/06/02,16:20,0.854,1.269,0.869,1.587,1.114,0.479,0.837,0.796,��쓌,9.7,��
2018/06/02,16:30,0.857,1.274,0.869,1.587,1.115,0.478,0.833,0.794,��쓌,10.2,��
2018/06/02,16:40,0.856,1.270,0.869,1.587,1.115,0.478,0.835,0.794,��쓌,8.2,��
2018/06/02,16:50,0.856,1.270,0.870,1.588,1.113,0.479,0.834,0.795,��쓌,9.0,��
2018/06/02,17:00,0.857,1.270,0.870,1.587,1.112,0.477,0.837,0.795,��쓌,9.5,��
2018/06/02,17:10,0.857,1.269,0.871,1.587,1.114,0.477,0.834,0.794,��,8.5,��
2018/06/02,17:20,0.855,1.271,0.868,1.585,1.117,0.477,0.836,0.794,��쓌,8.7,��
2018/06/02,17:30,0.855,1.270,0.869,1.589,1.114,0.478,0.836,0.794,��,8.5,��
2018/06/02,17:40,0.856,1.272,0.871,1.588,1.114,0.476,0.834,0.795,��쓌,9.1,��
2018/06/02,17:50,0.857,1.269,0.869,1.588,1.113,0.478,0.832,0.796,��쓌,8.6,��
2018/06/02,18:00,0.855,1.272,0.868,1.589,1.114,0.478,0.834,0.795,��쓌,8.7,��
2018/06/02,18:10,0.854,1.270,0.870,1.587,1.112,0.478,0.834,0.795,��쓌,9.0,��
2018/06/02,18:20,0.856,1.272,0.868,1.585,1.113,0.478,0.833,0.797,��,9.0,��
2018/06/02,18:30,0.857,1.272,0.870,1.588,1.113,0.477,0.832,0.796,��,8.1,��
2018/06/02,18:40,0.855,1.268,0.869,1.585,1.116,0.478,0.833,0.797,��쓌,9.1,��
2018/06/02,18:50,0.855,1.270,0.867,1.591,1.114,0.478,0.834,0.798,��,7.4,��
2018/06/02,19:00,0.855,1.270,0.869,1.588,1.116,0.479,0.833,0.799,��,7.3,��
2018/06/02,19:10,0.856,1.272,0.869,1.592,1.114,0.477,0.834,0.796,��,7.5,��
2018/06/02,19:20,0.859,1.272,0.869,1.591,1.113,0.480,0.834,0.799,��,7.8,��
2018/06/02,19:30,0.858,1.275,0.872,1.592,1.115,0.479,0.835,0.797,��,6.8,��
2018/06/02,19:40,0.859,1.274,0.872,1.593,1.116,0.478,0.837,0.798,��,5.8,��
2018/06/02,19:50,0.858,1.273,0.871,1.591,1.116,0.480,0.835,0.800,��,5.2,��
2018/06/02,20:00,0.859,1.277,0.871,1.589,1.115,0.479,0.835,0.797,��,5.0,��
2018/06/02,20:10,0.858,1.275,0.873,1.589,1.117,0.480,0.838,0.796,��,5.7,��
2018/06/02,20:20,0.862,1.276,0.873,1.591,1.116,0.480,0.837,0.799,��,6.3,��
2018/06/02,20:30,0.860,1.275,0.872,1.590,1.116,0.479,0.839,0.798,��,6.5,��
2018/06/02,20:40,0.858,1.273,0.871,1.591,1.115,0.479,0.836,0.799,��,6.4,��
2018/06/02,20:50,0.856,1.273,0.872,1.591,1.117,0.479,0.836,0.796,��,4.9,��
2018/06/02,21:00,0.856,1.271,0.873,1.589,1.116,0.479,0.837,0.797,��쐼,3.8,��
2018/06/02,21:10,0.859,1.272,0.872,1.592,1.115,0.480,0.837,0.797,��,3.6,��
2018/06/02,21:20,0.857,1.273,0.872,1.590,1.117,0.479,0.836,0.797,��쐼,3.5,��
2018/06/02,21:30,0.860,1.273,0.872,1.590,1.116,0.480,0.838,0.798,��쐼,2.5,��
2018/06/02,21:40,0.859,1.271,0.873,1.591,1.115,0.479,0.837,0.797,��쐼,2.3,��
2018/06/02,21:50,0.858,1.273,0.872,1.589,1.114,0.481,0.835,0.797,��쐼,2.2,��
2018/06/02,22:00,0.855,1.273,0.873,1.589,1.117,0.479,0.836,0.799,��,1.7,��
2018/06/02,22:10,0.857,1.272,0.872,1.590,1.114,0.479,0.836,0.798,��쐼,2.0,��
2018/06/02,22:20,0.858,1.272,0.872,1.590,1.116,0.480,0.836,0.797,��쐼,1.9,��
2018/06/02,22:30,0.858,1.272,0.874,1.591,1.118,0.479,0.836,0.797,���쐼,0.8,��
2018/06/02,22:40,0.857,1.272,0.873,1.590,1.114,0.478,0.835,0.798,�k�k��,0.6,��
2018/06/02,22:50,0.859,1.272,0.875,1.592,1.117,0.478,0.837,0.797,-,CALM,��
2018/06/02,23:00,0.858,1.269,0.874,1.592,1.117,0.480,0.839,0.797,-,CALM,��
2018/06/02,23:10,0.859,1.272,0.872,1.590,1.117,0.479,0.838,0.799,���쐼,0.9,��
2018/06/02,23:20,0.858,1.273,0.872,1.592,1.116,0.479,0.837,0.798,�쐼,0.9,��
2018/06/02,23:30,0.859,1.274,0.872,1.590,1.118,0.479,0.837,0.799,��쐼,0.6,��
2018/06/02,23:40,0.857,1.270,0.874,1.591,1.116,0.477,0.837,0.798,�쐼,0.6,��
2018/06/02,23:50,0.856,1.270,0.873,1.590,1.116,0.477,0.837,0.796,��,1.4,��
